Wind_Speed
23 24 26 27 28 29 30 31 32 33 34 35 36 37 39 40 41 41 42 42 43 45 46 46 45 45 44 44 43 42 42 41 40 39 38 37 36 34
23 24 25 26 27 29 30 31 33 34 34 36 37 38 39 40 41 42 43 44 45 46 47 48 47 47 46 45 45 44 43 43 42 41 41 40 39 37
24 25 26 27 27 28 30 31 32 33 34 36 38 39 40 40 41 42 43 44 46 47 48 49 49 48 48 49 48 47 46 45 45 44 43 42 41 40
24 25 26 27 28 29 30 31 33 34 35 36 38 39 41 41 42 43 44 45 46 48 48 50 51 50 49 50 50 49 48 47 46 46 45 44 44 42
24 25 26 27 28 29 30 32 33 34 35 36 38 39 41 43 44 44 46 46 46 47 49 50 51 52 51 50 51 51 50 49 49 47 46 46 46 45
25 26 26 27 28 29 30 30 32 33 34 36 37 39 41 43 45 45 46 48 48 48 49 50 51 52 52 52 51 51 52 51 51 50 49 47 47 46
26 26 27 27 28 28 29 30 30 32 33 35 36 38 41 43 45 46 47 48 49 49 50 50 50 51 52 52 52 52 52 52 52 51 50 49 48 47
27 27 27 28 28 28 28 29 30 30 32 33 35 37 39 41 44 45 47 48 49 50 51 51 51 51 52 52 52 52 52 52 53 52 51 50 50 48
27 28 28 28 29 28 28 29 30 31 32 33 33 35 38 40 42 44 45 46 47 49 50 51 52 52 52 52 53 53 52 52 52 52 51 50 50 49
28 28 28 28 28 28 28 28 29 30 31 32 33 34 36 38 40 42 43 44 46 47 49 50 51 51 52 52 52 52 51 51 52 52 52 51 50 49
28 28 28 28 28 27 27 28 28 29 30 31 32 33 33 35 37 40 41 43 44 45 47 48 49 50 51 51 52 51 51 51 51 52 52 52 51 50
29 28 28 27 27 27 27 27 28 28 29 30 31 32 32 33 35 36 38 40 41 43 45 47 48 49 49 50 51 51 51 51 50 50 50 50 51 51
30 29 28 28 27 27 27 27 27 28 28 28 29 30 30 31 32 34 35 37 38 40 43 45 46 48 49 49 49 50 50 51 51 51 51 50 50 51
30 30 29 28 28 28 28 27 27 27 27 27 27 27 28 29 30 31 33 34 36 38 40 42 44 46 47 48 49 49 50 50 50 50 51 51 52 51
31 30 30 30 29 29 29 28 27 26 26 26 26 26 26 27 28 28 30 32 33 35 37 39 41 43 44 46 47 48 48 49 50 50 50 51 51 52
31 31 30 30 29 28 28 27 26 25 25 24 24 24 24 25 25 26 27 28 29 31 34 36 38 40 41 43 44 45 47 47 48 49 49 49 50 52
32 31 31 30 30 28 27 27 26 24 23 23 22 22 22 22 23 24 24 26 28 29 32 34 36 37 39 41 42 43 45 46 47 48 49 49 50 51
32 31 31 30 30 29 28 26 26 24 23 22 21 21 20 21 21 22 24 24 26 28 30 31 34 36 38 39 40 41 43 45 46 47 48 48 48 49
32 31 31 30 30 29 28 27 25 24 23 22 21 20 20 19 20 21 22 23 24 26 27 29 31 33 35 37 38 39 41 43 44 45 46 46 46 47
33 32 31 30 29 29 28 27 25 24 23 22 21 20 20 20 19 20 21 22 23 24 26 27 29 30 32 34 35 36 38 40 42 44 44 45 46 45
34 32 32 30 29 28 27 26 25 23 22 21 21 20 20 20 19 19 20 20 21 23 24 26 28 29 31 32 34 34 36 37 39 40 42 44 45 45
34 32 32 30 29 27 26 25 24 23 22 21 20 20 19 18 18 18 18 19 20 21 23 25 26 28 29 30 32 33 34 35 37 38 39 40 42 43
33 32 31 30 29 27 26 25 24 23 22 21 20 19 18 17 17 17 17 18 19 21 22 24 25 25 27 28 30 31 32 33 35 36 37 38 39 40
Wind_Direction
281 277 274 271 268 265 263 261 258 256 255 254 252 251 249 248 245 243 240 239 238 236 235 235 236 235 236 235 234 234 235 234 234 234 235 234 234 236
287 283 279 275 272 269 265 263 260 258 257 255 253 252 250 249 247 245 243 240 239 238 236 235 236 235 236 236 235 234 235 235 235 235 235 235 235 236
293 288 283 280 276 273 270 267 263 261 258 257 255 253 252 250 248 246 243 242 241 240 238 237 236 236 236 236 236 235 235 235 235 237 237 236 236 236
299 293 288 284 280 277 273 270 267 264 262 258 257 255 253 251 249 247 244 242 241 240 239 238 238 238 238 237 236 236 236 235 235 236 237 237 236 236
304 299 294 289 284 280 277 273 270 268 265 261 258 256 255 253 251 249 247 245 242 240 239 239 238 238 238 238 236 236 237 236 236 236 237 238 237 237
307 303 299 294 289 285 281 277 273 270 267 265 261 258 256 255 253 250 249 247 244 242 240 239 238 238 238 238 237 237 236 236 237 237 237 236 236 237
310 307 303 299 294 290 285 281 278 274 271 268 264 261 258 256 253 251 249 247 244 243 241 240 239 238 238 237 236 235 236 236 236 236 236 236 236 237
314 311 307 302 298 294 289 284 280 277 274 271 269 265 262 258 255 252 250 248 245 243 241 241 240 238 237 236 235 235 235 235 235 235 236 236 236 236
317 313 310 306 301 296 292 288 284 280 277 275 273 269 264 260 256 254 251 248 245 243 241 240 241 240 237 235 235 234 234 234 234 234 234 235 235 235
319 316 313 309 306 301 296 292 288 284 281 278 275 271 266 261 257 254 251 248 245 243 240 239 240 240 237 236 235 234 234 234 233 233 234 234 235 236
321 318 315 312 309 306 301 296 292 288 284 281 277 273 269 264 259 255 252 249 246 244 242 239 238 238 237 236 234 234 234 234 233 232 232 233 234 235
322 320 318 315 313 311 306 301 296 292 288 284 280 275 270 265 261 256 252 249 246 244 242 240 237 236 235 235 235 234 234 233 233 232 232 233 233 234
323 321 319 317 315 313 309 304 300 296 291 287 283 278 272 266 263 257 254 250 247 244 242 240 237 235 234 233 235 234 234 234 233 232 232 233 233 234
322 321 320 318 316 314 312 307 303 299 294 290 286 282 275 268 263 257 253 251 247 244 242 240 237 235 234 233 233 234 234 233 233 232 232 233 233 233
322 321 320 319 318 315 313 311 307 302 298 294 288 283 277 271 265 258 253 252 248 243 240 240 237 235 235 233 233 234 234 233 233 233 233 233 233 234
320 320 320 320 319 317 315 313 310 307 303 298 292 285 279 273 266 260 255 252 247 242 240 238 238 236 235 234 233 233 233 232 232 232 233 233 234 234
319 318 318 319 319 318 316 314 312 309 306 302 296 289 281 274 268 261 254 251 248 244 241 239 237 237 235 234 232 232 232 232 232 232 233 234 234 234
317 316 316 317 317 317 315 314 311 309 306 303 299 293 286 277 271 263 257 254 251 247 243 240 238 236 235 234 233 233 232 232 232 233 233 234 235 235
316 315 314 314 315 315 314 313 311 310 307 304 300 295 289 283 276 269 262 257 254 250 245 242 240 237 234 232 233 234 233 232 232 233 234 235 234 235
314 313 313 312 313 313 313 312 311 309 308 305 300 295 291 287 280 272 267 262 257 250 246 243 241 238 236 235 234 235 234 234 234 234 235 236 236 236
311 312 312 311 312 312 311 311 311 309 308 306 302 297 292 286 279 273 270 265 258 251 247 246 244 241 239 237 235 234 235 234 234 234 235 237 237 237
309 309 310 309 309 310 310 309 309 308 307 306 303 299 294 286 279 273 268 265 259 253 250 247 244 241 239 237 235 234 234 234 234 235 235 237 238 238
306 306 306 307 307 307 308 308 307 306 306 304 301 298 295 288 283 277 270 264 258 254 252 249 246 243 241 238 236 236 235 234 234 235 235 237 238 238
Height
5796 5795 5795 5794 5794 5795 5795 5796 5798 5799 5800 5801 5803 5805 5807 5810 5813 5816 5820 5823 5826 5830 5835 5839 5844 5848 5853 5857 5861 5866 5870 5874 5879 5883 5887 5890 5894 5897
5789 5788 5787 5787 5786 5786 5786 5787 5788 5789 5791 5791 5792 5794 5797 5799 5802 5805 5809 5812 5816 5820 5824 5828 5833 5838 5843 5847 5851 5856 5861 5865 5869 5874 5878 5882 5886 5890
5782 5781 5780 5779 5778 5778 5777 5777 5778 5779 5780 5781 5782 5783 5786 5788 5791 5794 5798 5801 5805 5809 5813 5817 5822 5827 5831 5836 5841 5846 5851 5855 5860 5865 5869 5873 5878 5882
5775 5774 5772 5771 5770 5769 5768 5768 5768 5768 5770 5771 5771 5773 5774 5777 5779 5783 5786 5789 5793 5797 5801 5805 5810 5815 5820 5825 5830 5835 5840 5845 5850 5855 5860 5864 5869 5873
5769 5766 5764 5762 5761 5759 5758 5758 5757 5757 5758 5759 5760 5761 5763 5765 5767 5770 5773 5777 5780 5784 5788 5793 5798 5803 5808 5813 5818 5823 5829 5834 5839 5844 5849 5853 5858 5863
5762 5759 5756 5754 5752 5750 5749 5747 5747 5746 5747 5748 5748 5749 5751 5752 5754 5757 5760 5763 5767 5771 5775 5780 5785 5790 5795 5801 5806 5811 5817 5822 5827 5833 5838 5843 5848 5853
5755 5752 5749 5746 5743 5741 5739 5737 5736 5736 5736 5736 5736 5737 5738 5739 5741 5743 5747 5750 5754 5758 5762 5767 5772 5777 5782 5787 5793 5799 5804 5810 5816 5821 5826 5832 5837 5842
5748 5744 5741 5738 5735 5732 5730 5728 5726 5725 5725 5724 5724 5725 5725 5726 5727 5729 5733 5737 5741 5745 5749 5754 5758 5764 5769 5774 5780 5786 5792 5797 5803 5809 5815 5821 5826 5832
5742 5738 5734 5730 5727 5724 5721 5719 5717 5715 5714 5713 5713 5712 5712 5713 5715 5717 5719 5722 5727 5731 5735 5741 5745 5751 5756 5761 5767 5773 5779 5785 5791 5797 5803 5809 5815 5820
5736 5731 5727 5722 5719 5715 5712 5710 5707 5705 5704 5703 5702 5701 5700 5700 5702 5704 5706 5710 5714 5717 5722 5728 5732 5737 5742 5748 5754 5760 5766 5772 5778 5785 5791 5797 5803 5809
5729 5724 5720 5715 5711 5707 5704 5701 5698 5695 5693 5692 5691 5689 5689 5689 5689 5691 5694 5697 5702 5705 5708 5714 5719 5724 5730 5736 5741 5747 5753 5759 5765 5772 5779 5785 5791 5796
5723 5718 5713 5708 5704 5700 5696 5693 5689 5686 5684 5682 5680 5679 5678 5678 5678 5680 5682 5685 5689 5693 5696 5701 5706 5711 5717 5723 5729 5735 5741 5747 5753 5760 5766 5772 5778 5784
5716 5711 5706 5702 5697 5693 5689 5685 5681 5678 5675 5673 5670 5669 5668 5667 5668 5669 5671 5674 5677 5681 5684 5688 5694 5699 5705 5712 5717 5722 5729 5735 5741 5748 5754 5760 5766 5772
5710 5705 5700 5695 5690 5686 5681 5677 5673 5670 5667 5664 5661 5659 5658 5657 5658 5659 5660 5662 5666 5669 5673 5677 5682 5687 5693 5699 5705 5711 5716 5723 5729 5736 5742 5748 5754 5760
5704 5698 5693 5688 5683 5679 5674 5670 5666 5662 5659 5656 5653 5651 5649 5649 5648 5649 5651 5652 5655 5658 5662 5666 5671 5676 5681 5688 5694 5699 5705 5711 5717 5724 5730 5736 5742 5748
5697 5692 5687 5682 5677 5672 5668 5663 5659 5655 5652 5649 5646 5643 5642 5641 5640 5641 5642 5644 5646 5649 5652 5656 5660 5665 5671 5676 5682 5688 5693 5699 5705 5712 5718 5724 5730 5736
5690 5685 5680 5676 5671 5666 5661 5657 5652 5649 5645 5642 5639 5637 5635 5634 5633 5633 5635 5636 5638 5641 5644 5647 5651 5655 5660 5666 5672 5677 5683 5688 5694 5700 5706 5712 5718 5724
5683 5678 5673 5669 5664 5659 5655 5650 5646 5642 5639 5636 5633 5631 5629 5627 5627 5627 5628 5629 5631 5633 5635 5638 5642 5646 5651 5657 5662 5667 5672 5677 5683 5688 5694 5700 5706 5712
5676 5671 5667 5662 5658 5653 5648 5644 5640 5636 5633 5630 5627 5625 5623 5622 5621 5621 5621 5622 5623 5625 5627 5630 5633 5637 5642 5648 5652 5657 5662 5667 5672 5677 5683 5689 5695 5701
5669 5664 5659 5655 5651 5646 5642 5638 5634 5630 5627 5624 5621 5619 5617 5616 5615 5615 5615 5615 5617 5618 5620 5623 5626 5629 5634 5639 5643 5647 5651 5656 5661 5666 5672 5677 5683 5689
5661 5657 5652 5648 5644 5640 5636 5632 5628 5625 5621 5619 5616 5614 5612 5610 5609 5609 5609 5609 5610 5612 5614 5616 5618 5621 5625 5629 5634 5639 5642 5646 5651 5656 5661 5666 5672 5678
5653 5649 5645 5640 5637 5633 5629 5626 5622 5619 5616 5613 5610 5608 5606 5604 5604 5603 5603 5603 5604 5605 5607 5609 5611 5613 5617 5621 5625 5629 5633 5637 5641 5646 5651 5656 5661 5667
5644 5640 5637 5633 5629 5626 5623 5619 5616 5613 5610 5607 5605 5603 5601 5599 5598 5598 5598 5598 5598 5599 5600 5602 5604 5606 5609 5613 5616 5620 5624 5628 5633 5637 5642 5647 5651 5656